TimePST,TemperatureF,Dew PointF,Humidity,Sea Level PressureIn,VisibilityMPH,Wind Direction,Wind SpeedMPH,Gust SpeedMPH,PrecipitationIn,Events,Conditions,WindDirDegrees,DateUTC
12:15 AM,33.8,30.2,87,30.08,4.0,Calm,Calm,-,N/A,,Overcast,0,2013-02-04 08:15:00
12:35 AM,33.8,32.0,93,30.08,5.0,WSW,4.6,-,N/A,,Overcast,250,2013-02-04 08:35:00
12:55 AM,33.8,32.0,93,30.07,5.0,WSW,4.6,-,N/A,,Overcast,240,2013-02-04 08:55:00
1:15 AM,33.8,32.0,93,30.08,3.0,SW,6.9,-,N/A,,Overcast,230,2013-02-04 09:15:00
2:55 AM,33.8,32.0,93,30.07,4.0,SW,5.8,-,N/A,,Overcast,230,2013-02-04 10:55:00
3:15 AM,33.8,32.0,93,30.07,4.0,WSW,4.6,-,N/A,,Overcast,250,2013-02-04 11:15:00
3:35 AM,33.8,30.2,87,30.08,5.0,West,5.8,-,N/A,,Overcast,260,2013-02-04 11:35:00
3:55 AM,33.8,32.0,93,30.08,10.0,West,6.9,-,N/A,,Overcast,260,2013-02-04 11:55:00
4:15 AM,33.8,32.0,93,30.08,10.0,West,6.9,-,N/A,,Overcast,260,2013-02-04 12:15:00
4:35 AM,33.8,32.0,93,30.08,9.0,West,8.1,-,N/A,,Overcast,270,2013-02-04 12:35:00
4:55 AM,33.8,32.0,93,30.07,8.0,West,10.4,-,N/A,,Overcast,270,2013-02-04 12:55:00
5:15 AM,33.8,30.2,87,30.06,8.0,West,9.2,-,N/A,,Overcast,260,2013-02-04 13:15:00
5:35 AM,33.8,30.2,87,30.07,9.0,West,9.2,-,N/A,,Overcast,260,2013-02-04 13:35:00
5:55 AM,33.8,30.2,87,30.08,10.0,WSW,8.1,-,N/A,,Overcast,240,2013-02-04 13:55:00
6:15 AM,35.6,32.0,87,30.07,10.0,WSW,8.1,-,N/A,,Overcast,250,2013-02-04 14:15:00
6:35 AM,33.8,30.2,87,30.07,10.0,SW,6.9,-,N/A,,Overcast,230,2013-02-04 14:35:00
6:55 AM,33.8,32.0,93,30.08,8.0,WSW,5.8,-,N/A,,Overcast,250,2013-02-04 14:55:00
7:15 AM,33.8,30.2,87,30.07,7.0,SW,4.6,-,N/A,,Overcast,230,2013-02-04 15:15:00
7:35 AM,33.8,30.2,87,30.08,5.0,SW,5.8,-,N/A,,Overcast,230,2013-02-04 15:35:00
7:55 AM,33.8,32.0,93,30.08,5.0,WSW,4.6,-,N/A,,Overcast,250,2013-02-04 15:55:00
8:15 AM,33.8,32.0,93,30.08,3.0,West,8.1,-,N/A,,Overcast,260,2013-02-04 16:15:00
8:35 AM,33.8,32.0,93,30.09,3.0,WSW,5.8,-,N/A,,Overcast,250,2013-02-04 16:35:00
8:55 AM,33.8,32.0,93,30.09,3.0,WSW,8.1,-,N/A,,Overcast,240,2013-02-04 16:55:00
9:15 AM,33.8,32.0,93,30.08,2.5,SW,9.2,-,N/A,,Overcast,220,2013-02-04 17:15:00
9:35 AM,35.6,33.8,93,30.08,3.0,WSW,9.2,-,N/A,,Overcast,240,2013-02-04 17:35:00
9:55 AM,35.6,33.8,93,30.09,5.0,WSW,8.1,-,N/A,,Overcast,240,2013-02-04 17:55:00
10:15 AM,35.6,33.8,93,30.09,7.0,WSW,6.9,-,N/A,,Overcast,250,2013-02-04 18:15:00
10:35 AM,35.6,33.8,93,30.10,9.0,West,8.1,-,N/A,,Overcast,260,2013-02-04 18:35:00
10:55 AM,37.4,33.8,87,30.10,10.0,WSW,6.9,-,N/A,,Mostly Cloudy,250,2013-02-04 18:55:00
11:15 AM,37.4,33.8,87,30.09,10.0,SW,6.9,-,N/A,,Overcast,230,2013-02-04 19:15:00
11:35 AM,37.4,35.6,93,30.08,10.0,South,3.5,-,N/A,,Overcast,190,2013-02-04 19:35:00
11:55 AM,39.2,35.6,87,30.07,10.0,Calm,Calm,-,N/A,,Overcast,0,2013-02-04 19:55:00
12:15 PM,39.2,35.6,87,30.06,10.0,West,3.5,-,N/A,,Overcast,260,2013-02-04 20:15:00
12:35 PM,39.2,33.8,81,30.06,10.0,NW,4.6,-,N/A,,Overcast,320,2013-02-04 20:35:00
12:55 PM,41.0,35.6,81,30.06,10.0,SW,3.5,-,N/A,,Overcast,220,2013-02-04 20:55:00
1:15 PM,41.0,35.6,81,30.04,10.0,WSW,3.5,-,N/A,,Overcast,250,2013-02-04 21:15:00
1:35 PM,41.0,33.8,76,30.05,10.0,West,5.8,-,N/A,,Overcast,260,2013-02-04 21:35:00
1:55 PM,42.8,35.6,76,30.04,10.0,WSW,6.9,-,N/A,,Mostly Cloudy,240,2013-02-04 21:55:00
2:15 PM,41.0,35.6,81,30.04,10.0,Calm,Calm,-,N/A,,Scattered Clouds,0,2013-02-04 22:15:00
2:35 PM,42.8,35.6,76,30.05,10.0,Calm,Calm,-,N/A,,Mostly Cloudy,0,2013-02-04 22:35:00
2:55 PM,41.0,33.8,76,30.04,10.0,SW,3.5,-,N/A,,Mostly Cloudy,230,2013-02-04 22:55:00
3:15 PM,41.0,35.6,81,30.04,10.0,West,8.1,-,N/A,,Mostly Cloudy,270,2013-02-04 23:15:00
3:35 PM,39.2,33.8,81,30.04,10.0,West,9.2,-,N/A,,Overcast,260,2013-02-04 23:35:00
4:15 PM,39.2,33.8,81,30.04,10.0,SW,3.5,-,N/A,,Partly Cloudy,230,2013-02-05 00:15:00
4:35 PM,39.2,33.8,81,30.03,10.0,SW,5.8,-,N/A,,Partly Cloudy,230,2013-02-05 00:35:00
4:55 PM,37.4,30.2,75,30.02,10.0,SW,4.6,-,N/A,,Partly Cloudy,230,2013-02-05 00:55:00
5:15 PM,35.6,30.2,81,30.02,10.0,Calm,Calm,-,N/A,,Clear,0,2013-02-05 01:15:00
5:35 PM,35.6,30.2,81,30.02,10.0,South,3.5,-,N/A,,Clear,180,2013-02-05 01:35:00
5:55 PM,35.6,30.2,81,30.01,10.0,Calm,Calm,-,N/A,,Clear,0,2013-02-05 01:55:00
6:15 PM,35.6,30.2,81,30.01,10.0,Calm,Calm,-,N/A,,Clear,0,2013-02-05 02:15:00
6:55 PM,32.0,26.6,80,30.02,10.0,Calm,Calm,-,N/A,,Clear,0,2013-02-05 02:55:00
7:15 PM,30.2,26.6,86,30.01,10.0,East,3.5,-,N/A,,Clear,90,2013-02-05 03:15:00
7:35 PM,28.4,24.8,86,30.01,9.0,East,3.5,-,N/A,,Clear,90,2013-02-05 03:35:00
7:55 PM,30.2,28.4,93,30.01,10.0,ESE,4.6,-,N/A,,Clear,110,2013-02-05 03:55:00
8:15 PM,28.4,26.6,93,30.01,9.0,East,4.6,-,N/A,,Clear,80,2013-02-05 04:15:00
8:35 PM,28.4,24.8,86,30.01,7.0,East,3.5,-,N/A,,Clear,80,2013-02-05 04:35:00
8:55 PM,28.4,26.6,93,30.01,9.0,ENE,6.9,-,N/A,,Clear,60,2013-02-05 04:55:00
9:15 PM,28.4,24.8,86,30.00,10.0,East,4.6,-,N/A,,Clear,90,2013-02-05 05:15:00
9:35 PM,28.4,26.6,93,30.00,8.0,ESE,4.6,-,N/A,,Clear,110,2013-02-05 05:35:00
9:55 PM,32.0,30.2,93,29.99,10.0,SSE,3.5,-,N/A,,Clear,150,2013-02-05 05:55:00
10:15 PM,30.2,26.6,86,29.99,10.0,ENE,4.6,-,N/A,,Clear,70,2013-02-05 06:15:00
10:35 PM,28.4,28.4,100,29.99,10.0,ENE,4.6,-,N/A,,Partly Cloudy,60,2013-02-05 06:35:00
10:55 PM,30.2,28.4,93,29.98,10.0,NE,6.9,-,N/A,,Mostly Cloudy,50,2013-02-05 06:55:00
11:15 PM,30.2,28.4,93,29.98,10.0,NE,6.9,-,N/A,,Mostly Cloudy,50,2013-02-05 07:15:00
11:35 PM,30.2,28.4,93,29.97,10.0,ENE,6.9,-,N/A,,Scattered Clouds,70,2013-02-05 07:35:00
11:55 PM,30.2,28.4,93,29.97,10.0,ENE,3.5,-,N/A,,Mostly Cloudy,70,2013-02-05 07:55:00